• En España
  • Lista de países
  • Para 7 días
  • Temperatura del agua
  • Mapa Satelital
  • El tiempo en el mapa
  • Informadores
  • user-avatar
    Iniciar sesión

    Tiempo cada hora Batina

    Hoy, 26 Febrero, Lunes

    Tiempo Temperatura Precipitaciones Viento Presión Humedad
    00:00 +4°C° 0 mm 1 mps 665 mmHg 64%
    01:00 +4°C° 0 mm 1 mps 664 mmHg 65%
    02:00 +3°C° 0 mm 1 mps 664 mmHg 65%
    03:00 +3°C° 0 mm 1 mps 664 mmHg 66%
    04:00 +3°C° 0 mm 1 mps 664 mmHg 64%
    05:00 +2°C° 0 mm 1 mps 664 mmHg 62%
    06:00 +2°C° 0 mm 1 mps 664 mmHg 59%
    07:00 +4°C° 0 mm 1 mps 664 mmHg 50%
    08:00 +6°C° 0 mm 1 mps 665 mmHg 41%
    09:00 +8°C° 0 mm 1 mps 665 mmHg 32%
    10:00 +8°C° 0 mm 2 mps 665 mmHg 29%
    11:00 +9°C° 0 mm 2 mps 665 mmHg 26%
    12:00 +10°C° 0 mm 3 mps 665 mmHg 23%
    13:00 +11°C° 0 mm 3 mps 665 mmHg 22%
    14:00 +11°C° 0 mm 3 mps 664 mmHg 22%
    15:00 +11°C° 0 mm 4 mps 664 mmHg 21%
    16:00 +10°C° 0 mm 3 mps 663 mmHg 25%
    17:00 +9°C° 0 mm 3 mps 662 mmHg 29%
    18:00 +7°C° 0 mm 2 mps 662 mmHg 33%
    19:00 +7°C° 0 mm 2 mps 662 mmHg 35%
    20:00 +6°C° 0 mm 2 mps 662 mmHg 36%
    21:00 +6°C° 0 mm 2 mps 661 mmHg 38%
    22:00 +6°C° 0 mm 2 mps 661 mmHg 40%
    23:00 +6°C° 0 mm 2 mps 661 mmHg 42%

    Mañana, 27 Febrero, Martes

    Tiempo Temperatura Precipitaciones Viento Presión Humedad
    00:00 +5°C° 0 mm 2 mps 660 mmHg 44%
    01:00 +5°C° 0 mm 2 mps 660 mmHg 47%
    02:00 +5°C° 0 mm 2 mps 660 mmHg 50%
    03:00 +5°C° 0 mm 2 mps 660 mmHg 52%
    04:00 +5°C° 0 mm 2 mps 659 mmHg 55%
    05:00 +5°C° 0 mm 2 mps 659 mmHg 58%
    06:00 +6°C° 0 mm 1 mps 659 mmHg 61%
    07:00 +7°C° 0 mm 1 mps 660 mmHg 58%
    08:00 +8°C° 0 mm 1 mps 661 mmHg 55%
    09:00 +9°C° 0 mm 1 mps 661 mmHg 52%
    10:00 +9°C° 0,1 mm 2 mps 662 mmHg 49%
    11:00 +9°C° 0,1 mm 3 mps 662 mmHg 46%
    12:00 +10°C° 0,1 mm 4 mps 662 mmHg 43%
    13:00 +10°C° 0,1 mm 4 mps 662 mmHg 44%
    14:00 +10°C° 0,1 mm 3 mps 662 mmHg 44%
    15:00 +10°C° 0,1 mm 3 mps 663 mmHg 45%
    16:00 +9°C° 0 mm 3 mps 663 mmHg 49%
    17:00 +8°C° 0 mm 2 mps 663 mmHg 53%
    18:00 +8°C° 0 mm 2 mps 663 mmHg 58%
    19:00 +7°C° 0 mm 2 mps 664 mmHg 62%
    20:00 +7°C° 0 mm 1 mps 664 mmHg 67%
    21:00 +6°C° 0 mm 1 mps 665 mmHg 71%
    22:00 +6°C° 0 mm 1 mps 665 mmHg 71%
    23:00 +6°C° 0 mm 1 mps 665 mmHg 72%

    Pasado mañana, 28 Febrero, Miércoles

    Tiempo Temperatura Precipitaciones Viento Presión Humedad
    00:00 +5°C° 0 mm 2 mps 665 mmHg 72%
    01:00 +5°C° 0 mm 2 mps 665 mmHg 75%
    02:00 +5°C° 0 mm 2 mps 665 mmHg 77%
    03:00 +5°C° 0 mm 2 mps 664 mmHg 79%
    04:00 +5°C° 0 mm 2 mps 664 mmHg 79%
    05:00 +4°C° 0 mm 2 mps 665 mmHg 79%
    06:00 +4°C° 0 mm 2 mps 665 mmHg 80%
    07:00 +7°C° 0 mm 3 mps 666 mmHg 70%
    08:00 +8°C° 0 mm 4 mps 666 mmHg 59%
    09:00 +10°C° 0 mm 5 mps 667 mmHg 49%
    10:00 +11°C° 0 mm 6 mps 667 mmHg 47%
    11:00 +12°C° 0 mm 8 mps 667 mmHg 44%
    12:00 +13°C° 0 mm 9 mps 667 mmHg 41%
    13:00 +13°C° 0 mm 9 mps 667 mmHg 41%
    14:00 +13°C° 0 mm 9 mps 666 mmHg 41%
    15:00 +13°C° 0 mm 8 mps 666 mmHg 41%
    16:00 +12°C° 0 mm 7 mps 665 mmHg 45%
    17:00 +11°C° 0 mm 6 mps 665 mmHg 49%
    18:00 +10°C° 0 mm 5 mps 665 mmHg 53%
    19:00 +10°C° 0 mm 5 mps 665 mmHg 52%
    20:00 +10°C° 0 mm 5 mps 665 mmHg 51%
    21:00 +10°C° 0 mm 5 mps 665 mmHg 50%
    22:00 +9°C° 0 mm 5 mps 665 mmHg 50%
    23:00 +9°C° 0 mm 5 mps 665 mmHg 49%

    1 Marzo, Jueves

    Tiempo Temperatura Precipitaciones Viento Presión Humedad
    00:00 +9°C° 0 mm 5 mps 664 mmHg 49%
    01:00 +8°C° 0 mm 5 mps 664 mmHg 49%
    02:00 +8°C° 0 mm 4 mps 663 mmHg 49%
    03:00 +8°C° 0 mm 4 mps 663 mmHg 49%
    04:00 +7°C° 0 mm 4 mps 662 mmHg 49%
    05:00 +7°C° 0 mm 4 mps 662 mmHg 48%
    06:00 +8°C° 0 mm 3 mps 662 mmHg 48%
    07:00 +9°C° 0 mm 5 mps 663 mmHg 41%
    08:00 +12°C° 0 mm 7 mps 663 mmHg 35%
    09:00 +15°C° 0 mm 8 mps 663 mmHg 28%
    10:00 +16°C° 0 mm 10 mps 663 mmHg 26%
    11:00 +17°C° 0 mm 11 mps 662 mmHg 24%
    12:00 +18°C° 0 mm 13 mps 662 mmHg 22%
    13:00 +18°C° 0 mm 12 mps 662 mmHg 23%
    14:00 +18°C° 0 mm 11 mps 661 mmHg 24%
    15:00 +18°C° 0 mm 11 mps 661 mmHg 24%
    16:00 +16°C° 0,1 mm 9 mps 661 mmHg 35%
    17:00 +14°C° 0,1 mm 7 mps 661 mmHg 45%
    18:00 +12°C° 0,1 mm 5 mps 661 mmHg 55%
    19:00 +11°C° 0 mm 4 mps 662 mmHg 58%
    20:00 +11°C° 0 mm 4 mps 662 mmHg 61%
    21:00 +10°C° 0 mm 3 mps 663 mmHg 64%
    22:00 +10°C° 0 mm 4 mps 663 mmHg 67%
    23:00 +8°C° 0 mm 5 mps 663 mmHg 70%

    2 Marzo, Viernes

    Tiempo Temperatura Precipitaciones Viento Presión Humedad
    00:00 +8°C° 0 mm 5 mps 663 mmHg 72%
    01:00 +8°C° 0 mm 5 mps 663 mmHg 76%
    02:00 +7°C° 0 mm 5 mps 663 mmHg 80%
    03:00 +7°C° 0 mm 4 mps 663 mmHg 83%
    04:00 +6°C° 0 mm 4 mps 663 mmHg 84%
    05:00 +7°C° 0 mm 3 mps 663 mmHg 85%
    06:00 +7°C° 0 mm 3 mps 663 mmHg 86%
    07:00 +8°C° 0 mm 3 mps 664 mmHg 77%
    08:00 +10°C° 0 mm 4 mps 665 mmHg 68%
    09:00 +12°C° 0 mm 4 mps 666 mmHg 59%
    10:00 +13°C° 0 mm 4 mps 666 mmHg 52%
    11:00 +14°C° 0 mm 5 mps 666 mmHg 46%
    12:00 +15°C° 0 mm 5 mps 667 mmHg 39%
    13:00 +16°C° 0 mm 5 mps 667 mmHg 38%
    14:00 +16°C° 0 mm 5 mps 666 mmHg 37%
    15:00 +17°C° 0 mm 5 mps 666 mmHg 36%
    16:00 +17°C° 0 mm 4 mps 666 mmHg 41%
    17:00 +16°C° 0 mm 3 mps 666 mmHg 45%
    18:00 +15°C° 0 mm 2 mps 666 mmHg 50%
    19:00 +14°C° 0 mm 2 mps 666 mmHg 52%
    20:00 +14°C° 0 mm 2 mps 666 mmHg 55%
    21:00 +14°C° 0 mm 2 mps 667 mmHg 57%
    22:00 +13°C° 0,1 mm 2 mps 667 mmHg 61%
    23:00 +12°C° 0,1 mm 3 mps 667 mmHg 64%

    3 Marzo, Sábado

    Tiempo Temperatura Precipitaciones Viento Presión Humedad
    00:00 +12°C° 0,1 mm 4 mps 667 mmHg 67%
    01:00 +11°C° 0,1 mm 3 mps 666 mmHg 73%
    02:00 +10°C° 0,1 mm 3 mps 666 mmHg 78%
    03:00 +10°C° 0,1 mm 2 mps 666 mmHg 83%
    04:00 +9°C° 0 mm 2 mps 666 mmHg 83%
    05:00 +9°C° 0 mm 2 mps 666 mmHg 83%
    06:00 +9°C° 0 mm 1 mps 666 mmHg 83%
    07:00 +10°C° 0 mm 2 mps 667 mmHg 71%
    08:00 +13°C° 0 mm 2 mps 667 mmHg 59%
    09:00 +15°C° 0 mm 2 mps 668 mmHg 47%
    10:00 +16°C° 0 mm 3 mps 668 mmHg 41%
    11:00 +17°C° 0 mm 5 mps 669 mmHg 35%
    12:00 +19°C° 0 mm 6 mps 669 mmHg 29%
    13:00 +19°C° 0 mm 6 mps 669 mmHg 30%
    14:00 +19°C° 0 mm 6 mps 668 mmHg 31%
    15:00 +19°C° 0 mm 6 mps 668 mmHg 33%
    16:00 +17°C° 0 mm 5 mps 668 mmHg 38%
    17:00 +17°C° 0 mm 3 mps 668 mmHg 43%
    18:00 +16°C° 0 mm 2 mps 668 mmHg 48%
    19:00 +15°C° 0 mm 2 mps 668 mmHg 51%
    20:00 +15°C° 0 mm 2 mps 668 mmHg 53%
    21:00 +14°C° 0 mm 1 mps 668 mmHg 56%
    22:00 +14°C° 0 mm 2 mps 667 mmHg 57%
    23:00 +13°C° 0 mm 2 mps 667 mmHg 58%
    Mostrar más